[[{"header":{"parameterUnit":"m.s-1","parameterCategory":1,"la1":30.2991,"la2":30.254,"lo1":-89.0895,"lo2":-89.0444,"dy":0.0017,"dx":0.0017,"nx":28,"ny":28,"refTime":"2025-02-26T09:00:00:Z","depth":0,"parameterNumber":2,"parameterNumberName":"U-component_of_WINDS"},"data":[0,0,0,0,0,0,0,0,0,0,0,0,0,0,0,0,0,0,0,0,0,0,0,0,0,0,0,0,0,0,0,0,0,0,0,0,0,0,0,0,0,0,0,0,0,0,0,0,0,0,0,0,0,0,0,0,0,0,1.4792,1.4792,0,1.4839,1.4839,1.484,1.4805,1.4803,1.4801,1.48,1.4848,1.4851,1.4854,0,0,0,0,0,0,0,0,0,0,0,0,0,1.4672,1.4674,1.4792,1.4792,1.4793,1.4839,1.4839,1.484,1.4805,1.4803,1.4801,1.4799,1.4847,1.4851,1.4854,0,0,0,0,0,0,0,0,0,0,0,0,0,1.4722,1.4675,1.4792,1.4781,1.478,1.4839,1.484,1.484,1.4805,1.4803,1.4801,1.4798,1.4846,1.485,1.4854,1.4926,0,0,1.4867,1.4868,0,0,0,0,0,0,0,0,1.4719,1.4726,1.4782,1.4782,1.4781,1.4813,1.4815,1.4869,1.4806,1.4796,1.48,1.4797,1.4839,1.4843,1.4857,1.4928,1.493,1.4867,1.487,1.4871,1.4872,0,0,0,0,0,0,0,1.4716,1.4724,1.481,1.4783,1.4782,1.4774,1.4778,1.4825,1.483,1.4796,1.4794,1.48,1.4838,1.4853,1.4858,1.4931,1.4867,1.4871,1.4873,1.4875,1.5064,1.5066,0,0,0,0,0,0,1.4713,1.4721,1.4809,1.4812,1.4744,1.4778,1.4783,1.4805,1.4829,1.483,1.4802,1.4798,1.4847,1.4853,1.4859,1.4945,1.4871,1.4875,1.4877,1.5061,1.5064,1.5067,0,0,0,0,0,0,1.4711,1.4721,1.4807,1.4766,1.4776,1.4782,1.4808,1.4808,1.4823,1.4833,1.4834,1.4817,1.4846,1.4854,1.491,1.4946,1.4877,1.4881,1.5058,1.5062,1.5066,1.5117,0,0,0,0,0,0,1.4707,1.4721,1.4748,1.4767,1.4779,1.4857,1.481,1.481,1.483,1.4826,1.4847,1.4848,1.4845,1.4904,1.4914,1.4951,1.4884,1.5055,1.506,1.5064,1.5112,1.5122,1.5131,0,0,0,0,0,1.4703,1.476,1.4749,1.476,1.4813,1.4859,1.4865,1.486,1.4833,1.4861,1.4867,1.4848,1.4941,1.491,1.4921,1.496,1.5052,1.5058,1.5064,1.5108,1.512,1.5131,0,0,0,0,0,0,1.4745,1.4762,1.4751,1.4815,1.4836,1.4853,1.4887,1.4873,1.4901,1.4896,1.4888,1.4893,1.4952,1.4961,1.4926,1.503,1.4992,1.5001,1.5022,1.5034,1.5043,1.504,1.4887,0,0,0,0,0,1.4762,1.4798,1.4811,1.4867,1.4878,1.4881,1.4901,1.4895,1.4915,1.4924,1.4935,1.4956,1.499,1.5012,1.5044,1.5113,1.5118,1.5145,1.5155,1.5162,1.517,1.5208,1.522,1.5086,1.5086,1.5086,0,0,1.4797,1.4811,1.4834,1.4876,1.4891,1.4929,1.4888,1.493,1.4958,1.493,1.4984,1.4993,1.5016,1.5079,1.5107,1.5088,1.5208,1.517,1.5176,1.5179,1.5215,1.5227,1.5239,1.509,1.5089,1.5088,0,0,1.488,1.4894,1.4942,1.4958,1.4982,1.4984,1.4995,1.5015,1.5019,1.5073,1.5054,1.5087,1.5145,1.5163,1.5179,1.527,1.5253,1.528,1.5329,1.5366,1.5377,1.5386,1.5419,1.5431,1.5287,1.5288,1.5288,0,1.492,1.4976,1.4969,1.5012,1.5031,1.5008,1.5058,1.5074,1.5107,1.512,1.5099,1.5172,1.5186,1.5253,1.5276,1.529,1.5303,1.5278,1.5376,1.5385,1.5394,1.5425,1.5437,1.5291,1.529,1.529,1.529,0,1.5025,1.5064,1.51,1.5133,1.5156,1.5202,1.5202,1.5227,1.5219,1.5223,1.5278,1.5294,1.5329,1.5345,1.5337,1.5411,1.5399,1.5377,1.5339,1.541,1.5439,1.5451,1.5295,1.5294,1.5293,1.5292,0,0,1.5135,1.5164,1.5177,1.5192,1.5217,1.5247,1.5292,1.5326,1.5348,1.5371,1.5409,1.546,1.544,1.5458,1.5453,1.5485,1.5557,1.5459,1.546,1.5477,1.564,1.5656,1.567,1.5546,1.5548,1.555,1.5638,0,1.522,1.5298,1.5294,1.5368,1.5404,1.5383,1.5423,1.5442,1.5448,1.5479,1.5485,1.5521,1.5492,1.5503,1.5534,1.5541,1.5589,1.5535,1.5581,1.5583,1.5576,1.5685,1.5703,1.5785,1.5649,1.5651,1.5652,0,1.5328,1.5356,1.5434,1.5454,1.5469,1.5505,1.5536,1.5567,1.5589,1.559,1.5612,1.5601,1.5647,1.5607,1.5671,1.5634,1.5652,1.5659,1.5662,1.5666,1.5622,1.5693,1.5811,1.5823,1.567,1.5669,1.5667,0,1.5402,1.5458,1.5512,1.5526,1.555,1.5576,1.5587,1.5607,1.5628,1.5656,1.5669,1.5702,1.572,1.5745,1.5743,1.5715,1.5808,1.5768,1.581,1.5811,1.5831,1.583,1.5954,1.5843,1.5843,1.5842,1.5842,0,1.5496,1.5545,1.5546,1.5579,1.5633,1.5627,1.5681,1.5689,1.5707,1.5742,1.5726,1.5759,1.5755,1.5788,1.5787,1.584,1.5848,1.585,1.585,1.5852,1.5852,1.5864,1.5858,1.5846,1.5845,1.5844,1.5844,0,1.5587,1.5589,1.5647,1.5666,1.5672,1.5711,1.5727,1.5759,1.5763,1.5807,1.5817,1.5823,1.5862,1.5862,1.5906,1.5906,1.597,1.5963,1.5963,1.5962,1.6004,1.6,1.6141,1.6159,1.6036,1.6037,1.6038,0,1.5647,1.5684,1.5707,1.573,1.5743,1.5779,1.58,1.5797,1.582,1.5848,1.5877,1.5913,1.5943,1.6005,1.6013,1.6047,1.604,1.6088,1.6045,1.6047,1.6042,1.6039,1.6043,1.6096,1.6097,1.6098,1.6099,0,1.5755,1.5754,1.5786,1.5819,1.5845,1.5871,1.5895,1.5914,1.5913,1.594,1.5979,1.6002,1.6047,1.6084,1.6116,1.6128,1.6114,1.6113,1.6124,1.6127,1.6126,1.6127,1.5986,1.6109,1.6108,1.6108,1.6107,1.6107,1.5832,1.5864,1.5886,1.5922,1.594,1.5962,1.5993,1.6001,1.6034,1.6071,1.6066,1.611,1.6132,1.6174,1.6189,1.6223,1.6207,1.6223,1.6228,1.6232,1.6237,1.612,1.6229,1.6229,1.6228,1.6228,1.6228,0,1.5939,1.5952,1.5985,1.6019,1.6048,1.6032,1.6058,1.6083,1.6122,1.6143,1.6173,1.6218,1.6254,1.6266,1.63,1.6326,1.632,1.6335,1.6333,1.6336,1.6249,1.6236,1.6339,1.6339,1.6339,1.6339,1.6339,1.6339,1.5997,1.6051,1.6054,1.6116,1.6128,1.6171,1.6188,1.6209,1.6226,1.6277,1.6307,1.6315,1.6332,1.6368,1.6401,1.6403,1.6417,1.6435,1.6435,1.6353,1.6342,1.6331,1.6319,1.6438,1.6438,1.6519,1.6519,1.652]},{"header":{"parameterUnit":"m.s-1","parameterCategory":1,"la1":30.2991,"la2":30.254,"lo1":-89.0895,"lo2":-89.0444,"dy":0.0017,"dx":0.0017,"nx":28,"ny":28,"refTime":"2025-02-26T09:00:00:Z","depth":0,"parameterNumber":3,"parameterNumberName":"V-component_of_WINDS"},"data":[0,0,0,0,0,0,0,0,0,0,0,0,0,0,0,0,0,0,0,0,0,0,0,0,0,0,0,0,0,0,0,0,0,0,0,0,0,0,0,0,0,0,0,0,0,0,0,0,0,0,0,0,0,0,0,0,0,0,-0.0905,-0.0904,0,-0.0839,-0.0838,-0.0837,-0.0819,-0.0819,-0.082,-0.082,-0.0752,-0.075,-0.0748,0,0,0,0,0,0,0,0,0,0,0,0,0,-0.1016,-0.1014,-0.0905,-0.0904,-0.0903,-0.0839,-0.0838,-0.0837,-0.0819,-0.0819,-0.082,-0.082,-0.0753,-0.0751,-0.0748,0,0,0,0,0,0,0,0,0,0,0,0,0,-0.0961,-0.1014,-0.0905,-0.0887,-0.0884,-0.0839,-0.0838,-0.0837,-0.0819,-0.082,-0.082,-0.0821,-0.0754,-0.0751,-0.0748,-0.0716,0,0,-0.0738,-0.0736,0,0,0,0,0,0,0,0,-0.0964,-0.0957,-0.089,-0.0888,-0.0885,-0.0838,-0.0852,-0.0796,-0.0819,-0.0844,-0.082,-0.0821,-0.078,-0.0775,-0.0761,-0.0713,-0.071,-0.0737,-0.0736,-0.0734,-0.0733,0,0,0,0,0,0,0,-0.0968,-0.0959,-0.0879,-0.0889,-0.0886,-0.0882,-0.0874,-0.0841,-0.081,-0.0842,-0.084,-0.0833,-0.0779,-0.0764,-0.076,-0.0709,-0.0738,-0.0735,-0.0733,-0.0731,-0.0631,-0.063,0,0,0,0,0,0,-0.0975,-0.0963,-0.0881,-0.0877,-0.0927,-0.0879,-0.0871,-0.0852,-0.081,-0.0804,-0.0832,-0.0832,-0.077,-0.0763,-0.0757,-0.0716,-0.0734,-0.0731,-0.0729,-0.0631,-0.063,-0.063,0,0,0,0,0,0,-0.0977,-0.0968,-0.0883,-0.0919,-0.0908,-0.0877,-0.0856,-0.0851,-0.0836,-0.0803,-0.0797,-0.0823,-0.077,-0.0762,-0.0726,-0.0714,-0.073,-0.0727,-0.0632,-0.0631,-0.063,-0.0635,0,0,0,0,0,0,-0.0981,-0.0969,-0.0956,-0.0919,-0.0906,-0.0854,-0.0855,-0.0849,-0.083,-0.083,-0.0793,-0.0787,-0.077,-0.0731,-0.0723,-0.071,-0.0724,-0.0633,-0.0632,-0.063,-0.0636,-0.0635,-0.0633,0,0,0,0,0,-0.0985,-0.0961,-0.0956,-0.0946,-0.089,-0.0853,-0.0846,-0.0826,-0.083,-0.0817,-0.0795,-0.0788,-0.0717,-0.0728,-0.0718,-0.0704,-0.0634,-0.0632,-0.063,-0.0637,-0.0635,-0.0633,0,0,0,0,0,0,-0.0997,-0.0955,-0.0949,-0.0913,-0.0886,-0.085,-0.0833,-0.0825,-0.0797,-0.0797,-0.0775,-0.0766,-0.0732,-0.0715,-0.0728,-0.0671,-0.0675,-0.0672,-0.0683,-0.0681,-0.068,-0.0684,-0.0721,0,0,0,0,0,-0.0995,-0.0969,-0.0934,-0.0905,-0.0892,-0.0865,-0.0848,-0.0835,-0.0807,-0.0796,-0.0772,-0.0745,-0.0716,-0.0698,-0.067,-0.0634,-0.0625,-0.062,-0.0618,-0.0617,-0.0614,-0.0593,-0.059,-0.0624,-0.0624,-0.0624,0,0,-0.0992,-0.0966,-0.095,-0.0907,-0.0885,-0.0857,-0.0856,-0.0827,-0.0806,-0.0791,-0.0756,-0.0738,-0.0706,-0.067,-0.0653,-0.0655,-0.0603,-0.0615,-0.0615,-0.0612,-0.0591,-0.0588,-0.0585,-0.0623,-0.0623,-0.0624,0,0,-0.0971,-0.0949,-0.0922,-0.09,-0.0867,-0.085,-0.0843,-0.0808,-0.0795,-0.0759,-0.0748,-0.0723,-0.0674,-0.0652,-0.0635,-0.0606,-0.0598,-0.0598,-0.059,-0.057,-0.0567,-0.0565,-0.0554,-0.055,-0.0595,-0.0595,-0.0595,0,-0.0971,-0.0929,-0.0909,-0.0881,-0.0862,-0.0848,-0.082,-0.08,-0.0759,-0.0746,-0.0749,-0.0687,-0.0665,-0.0623,-0.0616,-0.0603,-0.0595,-0.0601,-0.0569,-0.0566,-0.0564,-0.0553,-0.0549,-0.0595,-0.0595,-0.0595,-0.0595,0,-0.093,-0.0901,-0.0883,-0.0844,-0.0824,-0.0796,-0.0772,-0.0753,-0.0742,-0.0724,-0.0688,-0.0661,-0.0627,-0.0617,-0.0606,-0.0573,-0.0575,-0.0574,-0.0577,-0.0561,-0.055,-0.0546,-0.0595,-0.0595,-0.0595,-0.0595,0,0,-0.0914,-0.0865,-0.0859,-0.0841,-0.0803,-0.0781,-0.0752,-0.0719,-0.0703,-0.0676,-0.0651,-0.0611,-0.0609,-0.0589,-0.0576,-0.0559,-0.0537,-0.0559,-0.0558,-0.0555,-0.0498,-0.0499,-0.0494,-0.0532,-0.0531,-0.053,-0.0501,0,-0.0888,-0.0836,-0.0818,-0.0775,-0.0748,-0.0735,-0.071,-0.0684,-0.0667,-0.0642,-0.0623,-0.0594,-0.0594,-0.0582,-0.0564,-0.0543,-0.0525,-0.0545,-0.0508,-0.0507,-0.0515,-0.0489,-0.049,-0.0463,-0.0497,-0.0496,-0.0495,0,-0.0851,-0.0823,-0.0777,-0.0743,-0.0731,-0.0709,-0.0677,-0.0653,-0.0624,-0.0612,-0.059,-0.0578,-0.0548,-0.0555,-0.0513,-0.0527,-0.0511,-0.0498,-0.0497,-0.0492,-0.0499,-0.0482,-0.0454,-0.045,-0.0489,-0.0489,-0.049,0,-0.0843,-0.0794,-0.076,-0.0745,-0.0705,-0.069,-0.0672,-0.0644,-0.0625,-0.0597,-0.0584,-0.0553,-0.0536,-0.0513,-0.0493,-0.05,-0.0452,-0.0458,-0.0442,-0.0442,-0.0431,-0.0432,-0.0399,-0.0423,-0.0423,-0.0423,-0.0423,0,-0.0815,-0.0787,-0.0756,-0.0735,-0.0704,-0.0683,-0.0653,-0.0635,-0.061,-0.0585,-0.0572,-0.0549,-0.0525,-0.0499,-0.0484,-0.0451,-0.0443,-0.0433,-0.0429,-0.0434,-0.0435,-0.0422,-0.0423,-0.0422,-0.0422,-0.0423,-0.0423,0,-0.08,-0.0778,-0.074,-0.0705,-0.0696,-0.0674,-0.0644,-0.0623,-0.0606,-0.0575,-0.0566,-0.0539,-0.0508,-0.0486,-0.0446,-0.0436,-0.04,-0.0397,-0.0409,-0.0407,-0.0392,-0.0394,-0.0349,-0.0342,-0.0372,-0.0371,-0.0371,0,-0.0783,-0.0762,-0.0724,-0.0707,-0.0689,-0.0661,-0.0642,-0.0621,-0.0601,-0.0566,-0.055,-0.0518,-0.0491,-0.0442,-0.0418,-0.0388,-0.0383,-0.0369,-0.0378,-0.0383,-0.0382,-0.0383,-0.038,-0.0368,-0.0368,-0.0367,-0.0367,0,-0.0755,-0.0745,-0.0718,-0.0686,-0.0664,-0.0638,-0.0612,-0.0599,-0.0573,-0.0552,-0.0519,-0.0499,-0.0458,-0.0426,-0.0393,-0.0375,-0.0367,-0.0365,-0.0359,-0.0363,-0.0371,-0.0366,-0.0405,-0.0366,-0.0366,-0.0366,-0.0366,-0.0366,-0.0738,-0.0718,-0.0689,-0.0658,-0.0637,-0.0613,-0.0592,-0.0571,-0.0544,-0.0509,-0.0498,-0.0465,-0.0436,-0.0391,-0.0373,-0.0347,-0.0347,-0.034,-0.0338,-0.0336,-0.0335,-0.0376,-0.0341,-0.0341,-0.0341,-0.0341,-0.0341,0,-0.0709,-0.0689,-0.0662,-0.0626,-0.0602,-0.0596,-0.0567,-0.0548,-0.0518,-0.0492,-0.0466,-0.0429,-0.0398,-0.0372,-0.034,-0.0324,-0.032,-0.0317,-0.0317,-0.0313,-0.0337,-0.0344,-0.0321,-0.0321,-0.0321,-0.0321,-0.0321,-0.0321,-0.0691,-0.0656,-0.0643,-0.0598,-0.0579,-0.0545,-0.0529,-0.0507,-0.0486,-0.0445,-0.042,-0.0403,-0.0377,-0.0343,-0.0315,-0.0308,-0.0296,-0.0294,-0.0286,-0.0309,-0.0311,-0.0313,-0.032,-0.0292,-0.0292,-0.0264,-0.0264,-0.0264]}]]